TimeHST,TemperatureF,Dew PointF,Humidity,Sea Level PressureIn,VisibilityMPH,Wind Direction,Wind SpeedMPH,Gust SpeedMPH,PrecipitationIn,Events,Conditions,WindDirDegrees,DateUTC
12:53 AM,63.0,61.0,93,29.93,10.0,Calm,Calm,-,N/A,,Clear,0,2014-01-31 10:53:00
1:28 AM,62.6,60.8,94,29.90,10.0,Calm,Calm,-,N/A,,Partly Cloudy,0,2014-01-31 11:28:00
1:53 AM,62.1,61.0,96,29.91,10.0,Calm,Calm,-,N/A,,Partly Cloudy,0,2014-01-31 11:53:00
2:53 AM,62.1,61.0,96,29.91,10.0,Calm,Calm,-,N/A,,Clear,0,2014-01-31 12:53:00
3:53 AM,63.0,62.1,97,29.90,10.0,NNE,3.5,-,N/A,,Clear,30,2014-01-31 13:53:00
4:53 AM,63.0,62.1,97,29.90,10.0,NE,3.5,-,N/A,,Partly Cloudy,40,2014-01-31 14:53:00
5:53 AM,63.0,62.1,97,29.91,10.0,NE,3.5,-,N/A,,Clear,50,2014-01-31 15:53:00
6:25 AM,62.6,62.6,100,29.90,10.0,Calm,Calm,-,N/A,,Scattered Clouds,0,2014-01-31 16:25:00
6:53 AM,63.0,62.1,97,29.92,10.0,Calm,Calm,-,N/A,,Clear,0,2014-01-31 16:53:00
7:06 AM,62.6,62.6,100,29.90,10.0,Calm,Calm,-,N/A,,Partly Cloudy,0,2014-01-31 17:06:00
7:53 AM,64.0,63.0,96,29.93,10.0,NNE,3.5,-,N/A,,Unknown,30,2014-01-31 17:53:00
8:53 AM,72.0,66.9,84,29.94,10.0,Calm,Calm,-,N/A,,Clear,0,2014-01-31 18:53:00
9:53 AM,75.9,66.9,74,29.94,10.0,East,5.8,-,N/A,,Clear,80,2014-01-31 19:53:00
10:53 AM,75.9,69.1,79,29.93,10.0,SE,8.1,-,N/A,,Clear,130,2014-01-31 20:53:00
11:53 AM,77.0,68.0,74,29.91,10.0,SE,8.1,-,N/A,,Clear,130,2014-01-31 21:53:00
12:53 PM,77.0,69.1,76,29.88,10.0,SE,6.9,-,N/A,,Clear,140,2014-01-31 22:53:00
1:53 PM,77.0,69.1,76,29.85,10.0,SE,8.1,-,N/A,,Clear,140,2014-01-31 23:53:00
2:21 PM,73.4,69.8,88,29.83,10.0,SE,10.4,20.7,N/A,,Mostly Cloudy,130,2014-02-01 00:21:00
2:39 PM,75.2,69.8,83,29.83,10.0,ESE,11.5,18.4,N/A,,Mostly Cloudy,120,2014-02-01 00:39:00
2:53 PM,75.0,70.0,84,29.85,10.0,SE,10.4,17.3,N/A,,Mostly Cloudy,130,2014-02-01 00:53:00
3:53 PM,72.0,70.0,93,29.84,4.0,South,17.3,-,0.01,Rain,Light Rain,170,2014-02-01 01:53:00
4:51 PM,71.6,68.0,88,29.84,10.0,South,6.9,-,0.00,,Overcast,180,2014-02-01 02:51:00
4:53 PM,71.1,68.0,90,29.86,10.0,South,6.9,-,0.00,,Overcast,190,2014-02-01 02:53:00
5:08 PM,71.6,69.8,94,29.84,7.0,SSW,3.5,-,0.00,Rain,Light Rain,200,2014-02-01 03:08:00
5:53 PM,72.0,69.1,91,29.86,10.0,ESE,4.6,-,0.00,,Overcast,120,2014-02-01 03:53:00
6:10 PM,71.6,68.0,88,29.84,10.0,Calm,Calm,-,N/A,,Overcast,0,2014-02-01 04:10:00
6:32 PM,71.6,68.0,88,29.84,10.0,Calm,Calm,-,N/A,,Overcast,0,2014-02-01 04:32:00
6:41 PM,71.6,68.0,88,29.84,10.0,Variable,3.5,-,N/A,,Overcast,0,2014-02-01 04:41:00
6:53 PM,71.1,68.0,90,29.87,10.0,Variable,3.5,-,N/A,,Overcast,0,2014-02-01 04:53:00
7:38 PM,71.6,69.8,94,29.85,10.0,South,8.1,-,0.01,Rain,Light Rain,180,2014-02-01 05:38:00
7:53 PM,72.0,69.1,91,29.88,10.0,South,10.4,-,0.01,,Overcast,170,2014-02-01 05:53:00
8:17 PM,73.4,69.8,88,29.86,10.0,South,11.5,-,N/A,,Mostly Cloudy,170,2014-02-01 06:17:00
8:39 PM,73.4,69.8,88,29.87,10.0,SSE,13.8,-,N/A,,Overcast,160,2014-02-01 06:39:00
8:53 PM,72.0,69.1,91,29.89,10.0,SSE,13.8,-,N/A,,Overcast,160,2014-02-01 06:53:00
9:35 PM,71.6,69.8,94,29.87,10.0,South,10.4,-,N/A,,Mostly Cloudy,170,2014-02-01 07:35:00
9:53 PM,73.0,69.1,87,29.88,10.0,South,9.2,-,N/A,,Scattered Clouds,170,2014-02-01 07:53:00
10:53 PM,73.0,70.0,90,29.88,10.0,South,12.7,-,N/A,,Partly Cloudy,170,2014-02-01 08:53:00
11:10 PM,73.4,69.8,88,29.85,10.0,SSE,16.1,-,N/A,,Mostly Cloudy,160,2014-02-01 09:10:00
11:53 PM,73.0,70.0,90,29.86,10.0,South,12.7,-,N/A,,Mostly Cloudy,170,2014-02-01 09:53:00